Monument Pass, CO

5:46 PM MDT on April 27, 2017 (GMT -0600)
Monument Pass

Weather History for KMNH - January, 2014

Change the Weather History Date:

Monday, January 20, 2014

  Actual Average Record
Temperature  
Mean Temperature 30 °F -  
Max Temperature 37 °F - 64 °F (2005)
Min Temperature 23 °F - 1 °F (2011)
Degree Days  
Heating Degree Days 35    
Month to date heating degree days  
Cooling Degree Days 0    
Month to date cooling degree days  
Moisture  
Dew Point 14 °F    
Average Humidity 52    
Maximum Humidity 80    
Minimum Humidity 30    
Precipitation  
Precipitation 0.00 in - 0.08 in (2004)
Sea Level Pressure  
Sea Level Pressure 30.24 in    
Wind  
Wind Speed 8 mph (WNW)    
Max Wind Speed 13 mph    
Max Gust Speed 29 mph    
Visibility 10 miles    
Events      
T = Trace of Precipitation, MM = Missing Value Source: NWS Daily Summary

Daily Weather History Graph

Daily Weather History Graph

Search for Another Location

Airport or City:

Trip Planner

Search our weather history database for the weather conditions in past years. The results will help you decide how hot, cold, wet, or windy it might be!

Date:

Astronomy

Jan. 20, 2014 Rise Set
Actual Time 7:14 AM MST 5:05 PM MST
Civil Twilight 6:45 AM MST 5:34 PM MST
Nautical Twilight 6:12 AM MST 6:07 PM MST
Astronomical Twilight 5:40 AM MST 6:39 PM MST
Moon 9:40 PM MST (1/20) 9:17 AM MST (1/20)
Length of Visible Light 10h 49m
Length of Day
9h 51m
Waning Gibbous, 82% of the Moon is Illuminated
Jan 20
Waning Gibbous
Jan 23
Last Quarter
Jan 30
New
Feb 6
First Quarter
Feb 14
Full

Hourly Weather History & Observations

Time (MST) Temp. Windchill Dew Point Humidity Pressure Visibility Wind Dir Wind Speed Gust Speed Precip Events Conditions
12:12 AM 33.8 °F 26.4 °F 8.6 °F 35% 30.02 in 10.0 mi SW 9.2 mph - N/A   Clear
12:32 AM 32.0 °F 24.2 °F 6.8 °F 35% 30.02 in 10.0 mi SW 9.2 mph - N/A   Clear
12:52 AM 32.0 °F 24.2 °F 8.6 °F 38% 30.02 in 10.0 mi SW 9.2 mph - N/A   Clear
1:12 AM 32.0 °F 24.2 °F 5.0 °F 32% 30.02 in 10.0 mi WSW 9.2 mph - N/A   Clear
1:31 AM 33.8 °F 25.8 °F 5.0 °F 30% 30.02 in 10.0 mi SW 10.4 mph - N/A   Clear
1:52 AM 32.0 °F 23.0 °F 8.6 °F 38% 30.03 in 10.0 mi WSW 11.5 mph - N/A   Clear
2:12 AM 30.2 °F 22.6 °F 10.4 °F 44% 30.03 in 10.0 mi West 8.1 mph - N/A   Clear
2:32 AM 30.2 °F 24.3 °F 8.6 °F 40% 30.04 in 10.0 mi West 5.8 mph - N/A   Clear
2:52 AM 32.0 °F 26.4 °F 8.6 °F 38% 30.05 in 10.0 mi West 5.8 mph - N/A   Clear
3:11 AM 32.0 °F 24.8 °F 6.8 °F 35% 30.06 in 10.0 mi NW 8.1 mph - N/A   Clear
3:31 AM 33.8 °F 25.8 °F 5.0 °F 30% 30.07 in 10.0 mi NW 10.4 mph - N/A   Clear
3:52 AM 30.2 °F 22.6 °F 5.0 °F 34% 30.08 in 10.0 mi NW 8.1 mph - N/A   Clear
4:11 AM 32.0 °F 25.6 °F 5.0 °F 32% 30.08 in 10.0 mi WNW 6.9 mph - N/A   Clear
4:32 AM 32.0 °F 25.6 °F 3.2 °F 30% 30.08 in 10.0 mi WNW 6.9 mph - N/A   Clear
4:50 AM 32.0 °F 24.8 °F 6.8 °F 35% 30.09 in 10.0 mi West 8.1 mph - N/A   Clear
5:12 AM 32.0 °F 24.2 °F 5.0 °F 32% 30.10 in 10.0 mi WNW 9.2 mph - N/A   Clear
5:30 AM 33.8 °F 26.4 °F 6.8 °F 32% 30.10 in 10.0 mi WNW 9.2 mph - N/A   Clear
5:51 AM 32.0 °F 23.0 °F 6.8 °F 35% 30.11 in 10.0 mi WNW 11.5 mph - N/A   Clear
6:11 AM 32.0 °F 23.6 °F 6.8 °F 35% 30.12 in 10.0 mi NNW 10.4 mph - N/A   Clear
6:31 AM 32.0 °F 26.4 °F 8.6 °F 38% 30.15 in 10.0 mi North 5.8 mph - N/A   Clear
6:51 AM 30.2 °F 20.2 °F 10.4 °F 44% 30.17 in 10.0 mi NNE 12.7 mph 28.8 mph N/A   Clear
7:11 AM 28.4 °F 18.5 °F 12.2 °F 51% 30.19 in 10.0 mi NE 11.5 mph - N/A   Clear
7:31 AM 28.4 °F 19.7 °F 14.0 °F 55% 30.21 in 10.0 mi NNE 9.2 mph 19.6 mph N/A   Clear
7:51 AM 28.4 °F 19.7 °F 14.0 °F 55% 30.23 in 10.0 mi NNE 9.2 mph - N/A   Clear
8:11 AM 26.6 °F 20.0 °F 14.0 °F 59% 30.25 in 10.0 mi WNW 5.8 mph - N/A   Clear
8:31 AM 26.6 °F 19.1 °F 15.8 °F 64% 30.27 in 10.0 mi WNW 6.9 mph - N/A   Clear
8:51 AM 26.6 °F 19.1 °F 15.8 °F 64% 30.28 in 10.0 mi NW 6.9 mph - N/A   Clear
9:11 AM 30.2 °F 22.6 °F 17.6 °F 60% 30.28 in 10.0 mi NNW 8.1 mph - N/A   Clear
9:30 AM 32.0 °F 24.2 °F 17.6 °F 55% 30.30 in 10.0 mi North 9.2 mph - N/A   Clear
9:51 AM 32.0 °F 23.0 °F 17.6 °F 55% 30.30 in 10.0 mi North 11.5 mph - N/A   Clear
10:12 AM 32.0 °F 24.2 °F 17.6 °F 55% 30.31 in 10.0 mi North 9.2 mph - N/A   Clear
10:31 AM 32.0 °F 23.6 °F 17.6 °F 55% 30.31 in 10.0 mi North 10.4 mph - N/A   Clear
10:51 AM 32.0 °F 26.4 °F 17.6 °F 55% 30.30 in 10.0 mi North 5.8 mph - N/A   Clear
11:12 AM 32.0 °F 26.4 °F 17.6 °F 55% 30.29 in 10.0 mi North 5.8 mph - N/A   Clear
11:32 AM 32.0 °F 28.7 °F 17.6 °F 55% 30.29 in 10.0 mi NNW 3.5 mph - N/A   Clear
11:51 AM 33.8 °F 29.6 °F 17.6 °F 52% 30.29 in 10.0 mi North 4.6 mph - N/A   Clear
12:10 PM 33.8 °F 28.6 °F 17.6 °F 52% 30.28 in 10.0 mi NNW 5.8 mph - N/A   Clear
12:31 PM 33.8 °F 30.8 °F 17.6 °F 52% 30.27 in 10.0 mi NNE 3.5 mph - N/A   Clear
12:51 PM 33.8 °F - 17.6 °F 52% 30.26 in 10.0 mi Calm Calm - N/A   Clear
1:12 PM 35.6 °F - 17.6 °F 48% 30.26 in 10.0 mi Calm Calm - N/A   Clear
1:32 PM 35.6 °F - 17.6 °F 48% 30.26 in 10.0 mi Calm Calm - N/A   Clear
1:52 PM 35.6 °F - 17.6 °F 48% 30.27 in 10.0 mi Calm Calm - N/A   Clear
2:11 PM 37.4 °F 34.9 °F 17.6 °F 45% 30.27 in 10.0 mi North 3.5 mph - N/A   Clear
2:31 PM 37.4 °F 33.8 °F 17.6 °F 45% 30.28 in 10.0 mi North 4.6 mph - N/A   Clear
2:52 PM 37.4 °F 31.4 °F 17.6 °F 45% 30.29 in 10.0 mi North 8.1 mph - N/A   Clear
3:11 PM 37.4 °F 30.3 °F 14.0 °F 38% 30.30 in 10.0 mi North 10.4 mph - N/A   Clear
3:31 PM 37.4 °F 32.1 °F 15.8 °F 41% 30.32 in 10.0 mi North 6.9 mph - N/A   Clear
3:52 PM 35.6 °F 28.6 °F 15.8 °F 44% 30.32 in 10.0 mi North 9.2 mph - N/A   Clear
4:12 PM 35.6 °F 30.7 °F 17.6 °F 48% 30.33 in 10.0 mi North 5.8 mph - N/A   Clear
4:32 PM 33.8 °F 29.6 °F 15.8 °F 48% 30.34 in 10.0 mi North 4.6 mph - N/A   Clear
4:52 PM 32.0 °F 28.7 °F 17.6 °F 55% 30.34 in 10.0 mi North 3.5 mph - N/A   Clear
5:11 PM 32.0 °F 28.7 °F 17.6 °F 55% 30.35 in 10.0 mi NNW 3.5 mph - N/A   Clear
5:32 PM 30.2 °F 24.3 °F 19.4 °F 64% 30.35 in 10.0 mi West 5.8 mph - N/A   Clear
5:52 PM 28.4 °F 22.2 °F 19.4 °F 69% 30.36 in 10.0 mi WSW 5.8 mph - N/A   Clear
6:11 PM 28.4 °F 23.3 °F 19.4 °F 69% 30.36 in 10.0 mi West 4.6 mph - N/A   Clear
6:31 PM 26.6 °F 22.6 °F 19.4 °F 74% 30.36 in 10.0 mi West 3.5 mph - N/A   Clear
6:51 PM 28.4 °F 23.3 °F 17.6 °F 64% 30.35 in 10.0 mi SW 4.6 mph - N/A   Clear
7:12 PM 26.6 °F 21.2 °F 19.4 °F 74% 30.36 in 10.0 mi SW 4.6 mph - N/A   Clear
7:32 PM 26.6 °F 20.0 °F 17.6 °F 69% 30.35 in 10.0 mi SW 5.8 mph - N/A   Clear
7:52 PM 24.8 °F 16.9 °F 17.6 °F 74% 30.35 in 10.0 mi SSW 6.9 mph - N/A   Clear
8:12 PM 24.8 °F 16.9 °F 17.6 °F 74% 30.34 in 10.0 mi SW 6.9 mph - N/A   Clear
8:32 PM 26.6 °F 18.2 °F 15.8 °F 64% 30.35 in 10.0 mi SW 8.1 mph - N/A   Clear
8:52 PM 23.0 °F 13.9 °F 17.6 °F 80% 30.35 in 10.0 mi SSW 8.1 mph - N/A   Clear
9:11 PM 23.0 °F 14.7 °F 15.8 °F 74% 30.35 in 10.0 mi SSW 6.9 mph - N/A   Clear
9:32 PM 23.0 °F 12.4 °F 15.8 °F 74% 30.35 in 10.0 mi SW 10.4 mph - N/A   Clear
9:52 PM 24.8 °F 17.9 °F 15.8 °F 69% 30.34 in 10.0 mi SSW 5.8 mph - N/A   Clear
10:12 PM 24.8 °F 16.9 °F 15.8 °F 69% 30.34 in 10.0 mi SSW 6.9 mph - N/A   Clear
10:32 PM 26.6 °F 18.2 °F 15.8 °F 64% 30.34 in 10.0 mi SSW 8.1 mph - N/A   Clear
10:52 PM 26.6 °F 18.2 °F 14.0 °F 59% 30.35 in 10.0 mi SSW 8.1 mph - N/A   Clear
11:11 PM 26.6 °F 18.2 °F 14.0 °F 59% 30.35 in 10.0 mi SSW 8.1 mph - N/A   Clear
11:32 PM 26.6 °F 18.2 °F 12.2 °F 55% 30.35 in 10.0 mi SSW 8.1 mph - N/A   Clear
11:51 PM 24.8 °F 15.3 °F 14.0 °F 64% 30.34 in 10.0 mi SSW 9.2 mph - N/A   Clear